Powrót do katalogu

STARLINK-34938

AktywnyŁącznośćSSO
NORAD 65236·PAYLOAD·🇺🇸 United States

Wystrzelony Aug 18, 2025 z Vandenberg Space Force Base

Loading…

Następne Przeloty (najbliższe 24 godziny)

TLE

ŚwieżeSource: CelesTrak SupGP

Epoka: Sep 14, 2026, 22:42 UTC

1 65236C 25179B   26257.94631944  .00050945  00000+0  15817-2 0  2571
2 65236  97.2836 297.3296 0001394  89.7216 153.3260 15.33408423    11

Śledź STARLINK-34938 w czasie rzeczywistym z AllMySat

Download on the App Store